Regional Weather Roundup
Issued by NWS Cleveland, OH

Home | Current Version | Previous Version | Graphics & Text | Print | Product List | Glossary On
Versions: 1 2 3 4 5 6 7 8 9 10 11 12 13 14 15 16 17 18 19 20 21 22 23 24 25 26 27 28 29 30 31 32 33 34 35 36 37 38 39 40 41 42 43 44 45 46 47 48 49 50
000
ASUS41 KCLE 250310
RWRCLE
OHIO REGIONAL WEATHER ROUNDUP
NATIONAL WEATHER SERVICE CLEVELAND, OH
1100 PM EDT SUN SEP 24 2017

NOTE: "FAIR" INDICATES FEW OR NO CLOUDS BELOW 12,000 FEET WITH NO
SIGNIFICANT WEATHER AND/OR OBSTRUCTIONS TO VISIBILITY.

OHZ001>008-015>018-024>027-034-035-043-044-250400-
   NORTHWEST OHIO

CITY           SKY/WX    TMP DP  RH WIND       PRES   REMARKS
DEFIANCE       CLEAR     71  63  75 E5        30.08S
FINDLAY        PTCLDY    73  64  73 E3        30.07S
TOLEDO EXPRESS CLEAR     70  68  93 E3        30.08S
TOLEDO EXEC    CLEAR     73  67  81 E6        30.09S
LIMA           CLEAR     67  60  78 NE6       30.08S
$$

OHZ009>014-019>023-028>033-038-089-250400-
   NORTHEAST OHIO

CITY           SKY/WX    TMP DP  RH WIND       PRES   REMARKS
CLE-HOPKINS    CLEAR     77  67  71 CALM      30.11R
CLE-LAKEFRONT  CLEAR     73  68  84 CALM      30.08S
CUY CO. ARPT   CLEAR     75  68  78 E6        30.11S
LORAIN-ELYRIA  CLEAR     65  59  81 CALM      30.10S
ASHTABULA      CLEAR     65  65 100 CALM      30.12S
AKRON-CANTON   CLEAR     73  60  63 NE6       30.12R
WOOSTER        CLEAR     64  61  90 CALM      30.11S
MANSFIELD      CLEAR     71  61  70 SE3       30.11S
YOUNGSTOWN     CLEAR     70  67  90 E5        30.12R
$$

OHZ042-051>053-060>062-070>072-077>081-250400-
  SOUTHWEST OHIO

CITY           SKY/WX    TMP DP  RH WIND       PRES   REMARKS
CINC-COVINGTON MOCLDY    75  55  49 E3        30.06S
CINC-LUNKEN    PTCLDY    65  62  90 CALM      30.06S
HAMILTON       PTCLDY    62  60  93 CALM      30.07R
DAYTON         PTCLDY    73  55  53 CALM      30.09S
WRIGHT-PAT AFB CLEAR     67  61  83 CALM      30.07S
DAYTON GENERAL CLEAR     66  56  70 NE6       30.07S
WILMINGTON     PTCLDY    67  61  81 CALM      30.08S
$$

OHZ036-037-039>041-045>050-054>059-063>069-073>076-082>088-250400-
  CENTRAL AND SOUTHEAST OHIO

CITY           SKY/WX    TMP DP  RH WIND       PRES   REMARKS
COLUMBUS       CLEAR     72  65  78 CALM      30.07S
OSU AIRPORT    CLEAR     71  64  78 CALM      30.08R
BOLTON FIELD   CLEAR     66  63  88 CALM      30.08S
RICKENBACK AFB CLEAR     69  64  83 NE5       30.06S
NEWARK         PTCLDY    65  63  93 CALM      30.08S
MARION         CLEAR     69  60  73 CALM      30.09S
LANCASTER      CLEAR     63  62  97 CALM      30.08F
ZANESVILLE     PTCLDY    70  63  78 CALM      30.08F
NEW PHILLY     NOT AVBL
$$




USA.gov is the U.S. government's official web portal to all federal, state and local government web resources and services.